This is the latest recevied weather packets stored in our database for station/object N8ESC. If no packets are shown the sender has not sent any weather packets the latest 10 day(s).
| Time | Temp. | Humidity | Pressure | Rain* | Wind** | Luminosity | Snow |
|---|---|---|---|---|---|---|---|
| 1777894399 | 7.78° C | 84% | 994.8 hPa | 0 mm | - | 39 W/m² | - |
| 1777894097 | 7.78° C | 85% | 994.9 hPa | 0 mm | - | 38 W/m² | - |
| 1777893793 | 7.78° C | 85% | 994.8 hPa | 0 mm | - | 34 W/m² | - |
| 1777893489 | 7.78° C | 86% | 994.9 hPa | 0 mm | - | 28 W/m² | - |
| 1777893186 | 7.78° C | 86% | 994.9 hPa | 0 mm | - | 22 W/m² | - |
| 1777892882 | 7.78° C | 86% | 994.9 hPa | 0 mm | - | 18 W/m² | - |
| 1777892579 | 7.78° C | 86% | 995.1 hPa | 0 mm | - | 15 W/m² | - |
| 1777892274 | 7.78° C | 86% | 994.9 hPa | 0 mm | - | 13 W/m² | - |
| 1777891971 | 7.78° C | 85% | 995.2 hPa | 0 mm | - | 10 W/m² | - |
| 1777891669 | 7.78° C | 85% | 995.4 hPa | 0 mm | - | 7 W/m² | - |
| 1777891365 | 7.78° C | 85% | 995.4 hPa | 0 mm | - | 5 W/m² | - |
| 1777891061 | 7.22° C | 85% | 995.6 hPa | 0 mm | - | 3 W/m² | - |
| 1777890761 | 7.22° C | 86% | 995.7 hPa | 0 mm | - | 2 W/m² | - |
| 1777890457 | 7.22° C | 85% | 995.7 hPa | 0 mm | - | 1 W/m² | - |
| 1777890153 | 7.22° C | 85% | 995.7 hPa | 0 mm | - | 1 W/m² | - |
| 1777889850 | 7.22° C | 86% | 995.7 hPa | 0 mm | - | 0 W/m² | - |
| 1777889547 | 7.22° C | 86% | 995.8 hPa | 0 mm | - | 0 W/m² | - |
| 1777889245 | 7.22° C | 86% | 996 hPa | 0 mm | - | 0 W/m² | - |
| 1777888943 | 6.67° C | 87% | 996 hPa | 0 mm | - | 0 W/m² | - |
| 1777888639 | 6.67° C | 87% | 996.2 hPa | 0 mm | - | 0 W/m² | - |
| 1777888335 | 6.67° C | 88% | 996.2 hPa | 0 mm | - | 0 W/m² | - |
| 1777888032 | 6.11° C | 89% | 996.4 hPa | 0 mm | - | 0 W/m² | - |
| 1777887729 | 5.56° C | 91% | 996.6 hPa | 0 mm | - | 0 W/m² | - |
| 1777887426 | 5° C | 93% | 996.6 hPa | 0 mm | - | 0 W/m² | - |
| 1777887121 | 5° C | 94% | 996.9 hPa | 0 mm | - | 0 W/m² | - |
* Rain latest hour (hover to see other rain measurements)
** Current wind speed in m/s (hover to see current wind gust speed)